This is the latest recevied weather packets stored in our database for station/object K1WJY. If no packets are shown the sender has not sent any weather packets the latest 10 day(s).
| Time | Temp. | Humidity | Pressure | Rain* | Wind** | Luminosity | Snow |
|---|---|---|---|---|---|---|---|
| 1777674284 | 13.89° C | 56% | 1009.3 hPa | 0 mm | - | 54 W/m² | - |
| 1777673979 | 13.89° C | 55% | 1009 hPa | 0 mm | - | 62 W/m² | - |
| 1777673676 | 13.89° C | 56% | 1009.1 hPa | 0 mm | - | 70 W/m² | - |
| 1777673374 | 14.44° C | 54% | 1008.8 hPa | 0 mm | - | 76 W/m² | - |
| 1777673072 | 14.44° C | 57% | 1008.9 hPa | 0 mm | - | 81 W/m² | - |
| 1777672767 | 14.44° C | 57% | 1009 hPa | 0 mm | - | 82 W/m² | - |
| 1777672464 | 14.44° C | 55% | 1008.8 hPa | 0 mm | - | 82 W/m² | - |
| 1777672160 | 14.44° C | 55% | 1008.7 hPa | 0 mm | - | 96 W/m² | - |
| 1777671855 | 15° C | 53% | 1009 hPa | 0 mm | - | 102 W/m² | - |
| 1777671551 | 14.44° C | 56% | 1008.8 hPa | 0 mm | - | 187 W/m² | - |
| 1777671248 | 14.44° C | 55% | 1008.6 hPa | 0 mm | - | 94 W/m² | - |
| 1777670943 | 14.44° C | 55% | 1008.6 hPa | 0 mm | - | 104 W/m² | - |
| 1777670640 | 14.44° C | 56% | 1008.6 hPa | 0 mm | - | 116 W/m² | - |
| 1777670337 | 14.44° C | 54% | 1008.7 hPa | 0 mm | - | 127 W/m² | - |
| 1777670034 | 15° C | 56% | 1008.7 hPa | 0 mm | - | 126 W/m² | - |
| 1777669732 | 15° C | 56% | 1008.6 hPa | 0 mm | - | 135 W/m² | - |
| 1777669429 | 14.44° C | 55% | 1008.6 hPa | 0 mm | - | 112 W/m² | - |
| 1777669125 | 15° C | 55% | 1008.5 hPa | 0 mm | - | 116 W/m² | - |
| 1777668822 | 15° C | 54% | 1008.4 hPa | 0 mm | - | 130 W/m² | - |
| 1777668518 | 15.56° C | 52% | 1008.5 hPa | 0 mm | - | 163 W/m² | - |
| 1777668215 | 16.11° C | 54% | 1008.3 hPa | 0 mm | - | 226 W/m² | - |
| 1777667911 | 16.11° C | 52% | 1008.1 hPa | 0 mm | - | 387 W/m² | - |
| 1777667609 | 16.11° C | 52% | 1008.3 hPa | 0 mm | - | 380 W/m² | - |
| 1777667306 | 15° C | 55% | 1008.4 hPa | 0 mm | - | 425 W/m² | - |
| 1777667003 | 15.56° C | 52% | 1008.3 hPa | 0 mm | - | 193 W/m² | - |
* Rain latest hour (hover to see other rain measurements)
** Current wind speed in m/s (hover to see current wind gust speed)